Regional Weather Roundup
Issued by NWS Jackson, KY

Home | Current Version | Previous Version | Graphics & Text | Print | Product List | Glossary On
Versions: 1 2 3 4 5 6 7 8 9 10 11 12 13 14 15 16 17 18 19 20 21 22 23 24 25 26 27 28 29 30 31 32 33 34 35 36 37 38 39 40 41 42 43 44 45 46 47 48 49 50
000
ASUS43 KJKL 211719
RWRJKL

EAST KENTUCKY HOURLY WEATHER ROUNDUP
NATIONAL WEATHER SERVICE JACKSON KY
1200 PM EST SUN DEC 21 2014

NOTE: "FAIR" INDICATES FEW OR NO CLOUDS BELOW 12,000 FEET WITH
NO SIGNIFICANT WEATHER AND/OR OBSTRUCTIONS TO VISIBILITY.

* THESE REPORTS ARE NOT UNDER NWS QUALITY CONTROL AND MAY NOT
  REPORT WEATHER SUCH AS PRECIPITATION AND FOG.

KYZ079-080-083-085-087-088-110-112-115-119-120-211800
...EASTERN KENTUCKY...

CITY           SKY/WX    TMP DP  RH WIND       PRES   REMARKS
JACKSON        SUNNY     36  26  67 VRB3      30.24F
LONDON         SUNNY     42  27  55 E7        30.23F
SOMERSET*      SUNNY     39  28  65 E5        30.24F
MONTICELLO*    SUNNY     43  29  58 SE6       30.25F
MIDDLESBORO*   SUNNY     38  31  76 CALM      30.23F
HARLAN APT*    SUNNY     43  28  56 CALM      30.21F
HAZARD APT*    SUNNY     41  30  65 CALM      30.24
BLACK MTN*       N/A     36  28  75 SW2         N/A
PIKEVILLE APT* SUNNY     37  28  70 CALM      30.23F
BIG SANDY*     SUNNY     38  29  68 CALM      30.26F
MOREHEAD APT*  MOSUNNY   37  27  65 VRB6      30.28F WCI  33
ASHLAND*       CLOUDY    36  25  64 CALM      30.28F
$$

KYZ035-036-041-042-044-050-067-078-099-211800
...CENTRAL KENTUCKY...

CITY           SKY/WX    TMP DP  RH WIND       PRES   REMARKS
MT STERLING*   MOSUNNY   34  30  86 SE6       30.28F WCI  29
FLEMING/MASON* CLOUDY    32  27  80 E6        30.30S WCI  26
DANVILLE*      SUNNY     32  30  93 E3        30.25F
RICHMOND*      SUNNY     37  28  70 E6        30.24F WCI  33
LEXINGTON      SUNNY     36  28  73 E6        30.26F WCI  31
FRANKFORT      MOSUNNY   35  27  72 E7        30.26F WCI  29
$$

KYZ091>093-OHZ055-061-077-WVZ005-015-034-035-042-211800
...SOUTHERN OHIO/WEST VIRGINIA...

CITY           SKY/WX    TMP DP  RH WIND       PRES   REMARKS
COVINGTON      MOSUNNY   34  24  67 SE8       30.28F WCI  27
COLUMBUS       PTSUNNY   33  21  61 VRB3      30.29F
DAYTON         PTSUNNY   34  23  64 SE9       30.27F WCI  27
WILMINGTON     CLOUDY    30  23  75 SE6       30.27F WCI  24
HUNTINGTON     MOSUNNY   37  27  67 N3        30.27F
CHARLESTON     MOSUNNY   39  26  59 CALM      30.27F
PINEVILLE*     SUNNY     42  34  71 MISG      30.27F
BECKLEY        SUNNY     39  26  59 VRB3      30.20F
BLUEFIELD      SUNNY     41  28  60 VRB3      30.20F
$$

VAZ002-007-008-TNZ017-027-036-066-071-211800
...SOUTHWEST VIRGINIA/EAST TENNESSEE...

CITY           SKY/WX    TMP DP  RH WIND       PRES   REMARKS
WISE*          SUNNY     41  28  60 E3        30.19F
JONESVILLE*    SUNNY     45  30  57 E3        30.23F
ABINGDON*      MOSUNNY   46  35  65 S5        30.20F
BRISTOL        MOSUNNY   47  36  65 CALM      30.21F
KNOXVILLE      CLOUDY    46  36  68 N6        30.20F
OAK RIDGE      CLOUDY    45  31  58 NE6       30.22F
CROSSVILLE     SUNNY     46  29  51 SE5       30.17F
NASHVILLE      MOSUNNY   46  29  51 E5        30.22F
$$

...KEY TO REMARKS...
VSB - VISIBILITY IN MILES
WCI - WIND CHILL INDEX
HX  - HEAT INDEX

$$


USA.gov is the U.S. government's official web portal to all federal, state and local government web resources and services.